Temperature
17 17 17 17 15 13 15 16 16 17 18 19 19 19 17 17 18 19 20 20 19 18 17 16 15 15 14 14 14 14 14 13 13 13 13 13 13 12 12 12 12 12 12 12 12 12 12 12 12
17 17 17 17 14 14 15 15 16 17 19 19 19 19 18 19 20 20 20 19 19 18 17 16 15 15 14 14 14 14 14 13 13 13 13 12 12 12 12 12 12 12 12 12 12 12 12 12 12
17 17 17 13 14 14 16 17 16 18 19 19 19 19 19 20 20 20 20 19 18 18 17 16 15 15 14 14 14 14 13 13 12 12 12 12 12 11 11 11 12 12 12 12 12 12 12 12 12
17 17 16 13 15 15 16 17 17 17 19 19 19 19 20 20 21 20 20 19 18 18 17 16 15 15 15 14 14 14 13 13 12 12 12 12 11 11 11 11 12 12 12 12 12 12 12 12 12
17 17 14 14 15 15 15 16 17 17 18 19 19 18 19 20 20 20 20 19 18 17 17 16 15 15 15 14 14 14 13 13 13 12 12 12 11 11 11 11 12 12 12 12 12 12 12 12 12
17 14 13 14 15 15 16 17 17 17 18 18 19 18 20 20 20 20 19 19 18 17 17 16 15 15 14 14 14 14 13 13 13 12 12 11 11 11 12 12 12 12 12 12 12 12 12 12 12
16 13 14 14 15 16 17 18 17 17 17 19 20 18 20 20 20 19 19 18 17 17 16 15 15 14 14 14 14 14 13 13 13 12 12 12 11 11 11 11 11 11 11 11 12 12 12 12 12
16 13 14 14 15 16 18 18 19 18 18 20 20 18 20 20 20 19 18 17 17 16 16 15 15 14 14 14 14 14 13 13 13 12 12 12 12 11 11 11 11 11 11 11 11 12 12 12 12
16 13 13 14 15 16 17 18 19 19 19 19 20 20 20 20 19 18 17 17 16 16 16 15 15 14 14 14 14 14 13 13 13 12 12 12 12 11 11 12 11 11 11 11 11 11 12 12 11
15 13 14 15 15 16 17 17 18 18 18 18 19 20 20 20 19 19 18 18 17 17 16 15 15 15 14 14 14 14 13 13 13 12 12 12 12 12 12 11 11 11 11 11 11 11 11 11 11
14 13 14 15 17 17 17 17 18 17 16 18 19 20 20 19 19 19 19 19 19 18 17 16 15 15 14 14 14 14 13 13 13 13 12 12 12 12 11 11 11 11 11 11 11 11 11 11 11
13 14 15 16 17 17 17 17 17 17 19 20 20 20 20 19 19 19 20 19 19 18 17 16 16 15 15 14 14 14 14 13 13 13 13 12 12 12 11 11 11 11 11 11 11 11 11 11 11
13 14 15 16 17 17 16 16 16 17 19 19 19 19 19 19 20 20 20 19 19 18 18 17 16 15 15 14 14 14 14 14 13 13 13 12 12 12 11 11 11 11 11 11 11 11 10 10 10
14 14 15 15 16 16 15 15 15 17 19 19 19 19 19 19 19 19 19 19 18 18 18 17 17 16 15 15 15 14 14 14 13 13 13 12 12 12 12 11 11 11 11 11 10 10 10 10 10
14 13 13 14 14 15 15 14 14 18 18 18 19 19 19 19 19 19 19 19 19 19 18 18 17 16 16 15 15 15 14 14 13 13 13 13 12 12 12 11 11 11 11 10 10 10 10 10 10
13 13 12 13 14 14 14 14 15 18 17 17 18 19 19 19 19 19 19 19 19 19 18 18 17 17 16 16 15 15 14 14 14 13 13 13 12 12 12 11 11 11 10 10 10 10 10 10 10
12 11 12 13 14 14 13 13 14 17 17 16 17 18 19 19 19 19 19 19 19 19 18 18 18 17 17 16 16 15 15 14 14 13 13 13 12 12 12 11 11 11 10 10 10 10 10 10 10
11 11 11 12 13 13 12 12 14 16 16 15 16 17 18 19 19 20 20 19 19 19 18 18 18 17 17 16 15 15 14 14 14 14 13 13 13 12 12 11 11 11 10 10 10 10 10 10 9
11 11 11 12 13 13 12 12 14 14 14 14 15 16 18 19 20 20 19 19 19 19 18 18 18 17 17 16 15 15 15 15 14 14 14 13 13 12 12 12 11 11 11 10 10 10 10 10 9
11 11 11 11 12 12 11 12 13 13 13 15 15 16 18 18 19 19 19 19 19 19 19 19 18 18 17 17 17 16 16 15 15 14 14 13 13 13 12 12 12 11 11 10 10 10 10 10 9
11 10 11 11 11 12 11 11 12 13 13 15 16 17 18 18 19 19 19 20 20 19 19 19 19 18 18 18 17 16 15 14 14 14 14 14 13 13 13 12 12 11 11 11 10 10 10 10 9
11 11 11 11 11 10 11 11 11 12 12 13 15 16 17 18 19 19 19 20 20 20 20 19 19 19 18 18 17 16 16 15 16 16 15 15 14 13 13 13 12 12 11 11 11 10 10 10 10
11 11 11 11 10 10 10 10 11 11 12 13 14 16 17 18 18 19 19 19 20 20 19 19 19 19 18 18 17 17 16 17 16 16 15 15 14 14 13 13 12 12 12 11 11 11 10 10 10
11 11 10 9 9 9 10 9 10 10 12 13 14 16 17 18 18 19 19 19 19 19 19 19 19 19 18 18 17 17 17 17 16 16 15 15 15 14 14 13 13 12 12 12 11 11 10 10 10
10 10 9 9 9 9 10 9 11 11 12 13 13 15 17 17 18 18 18 19 19 19 19 19 19 19 18 18 17 17 17 17 16 16 16 16 15 15 14 14 13 13 12 12 11 11 11 10 10
10 10 9 9 9 9 9 9 11 11 12 13 14 15 16 17 17 18 18 18 18 19 19 19 19 19 18 18 18 17 17 17 16 16 16 16 16 16 15 14 14 13 12 12 11 11 11 10 10
9 9 10 9 9 8 9 9 9 11 11 11 12 14 15 16 17 17 17 18 18 18 18 18 18 18 18 18 18 17 17 16 16 16 16 15 15 15 15 14 14 13 13 12 11 11 11 10 10
9 9 8 9 9 9 9 8 10 11 12 12 12 12 14 15 15 16 16 17 17 17 18 18 18 18 18 18 17 17 17 16 16 16 15 15 15 15 14 14 14 13 13 12 11 11 11 10 10
8 8 8 8 8 8 8 9 10 11 11 11 11 12 13 14 14 15 15 16 16 16 17 17 17 17 17 17 17 17 16 16 16 15 15 15 15 14 14 14 13 13 13 12 11 11 11 10 10
8 8 8 8 8 7 7 9 11 10 10 10 11 12 13 13 14 14 14 15 15 15 16 16 16 16 17 17 17 17 16 16 15 15 15 15 14 14 14 14 13 13 12 12 11 11 11 10 10
Wind_Speed
2 6 3 4 5 3 4 6 4 4 4 3 2 6 8 8 6 4 0 9 10 12 17 19 21 20 18 17 16 16 15 14 13 12 12 12 11 11 11 11 11 12 13 13 13 13 13 13 13
4 3 4 4 4 2 6 6 6 7 4 2 2 3 4 5 3 3 4 8 11 14 16 17 21 20 19 18 17 16 16 14 13 12 12 11 11 11 11 11 11 11 12 12 12 12 12 12 12
4 3 4 4 4 6 6 6 7 4 3 3 1 2 4 4 4 6 6 11 11 13 15 18 22 21 19 18 18 17 16 15 13 12 12 11 11 11 11 11 11 10 10 10 10 10 10 10 10
4 4 4 2 7 7 7 5 4 1 1 2 3 2 3 2 4 5 8 13 13 11 14 18 22 21 20 19 18 17 16 15 14 13 12 11 11 11 11 10 10 10 9 9 9 9 9 9 10
4 4 2 3 8 6 6 6 3 3 3 3 4 3 3 2 2 7 12 14 15 12 13 18 22 22 21 20 19 18 17 16 14 14 13 12 11 11 11 10 9 9 9 9 8 8 8 8 8
4 3 3 7 9 7 6 5 3 5 4 3 5 4 4 0 5 7 12 12 12 12 13 16 22 21 21 20 19 18 17 16 15 14 14 13 12 11 11 10 9 8 8 8 7 7 7 7 7
4 4 6 7 7 7 6 4 5 6 6 6 7 5 5 2 5 8 9 9 9 10 11 12 16 19 20 20 20 19 18 17 16 15 14 13 12 11 10 10 9 8 8 7 7 7 6 6 6
5 4 5 6 7 7 3 3 4 7 7 3 8 7 7 5 7 8 8 8 8 9 9 10 12 15 16 18 19 19 18 17 16 15 14 13 12 12 10 9 9 8 7 7 6 6 5 5 5
4 3 8 9 8 6 2 3 3 3 3 3 5 5 3 8 12 11 8 8 10 11 9 9 9 12 14 15 17 18 18 17 16 15 15 13 11 10 10 9 9 8 7 6 6 5 5 4 4
4 8 12 7 6 5 3 4 4 1 3 4 4 2 4 11 14 15 14 16 17 17 15 11 10 10 12 14 14 14 14 15 14 14 14 12 11 10 9 9 9 8 7 6 5 5 4 4 3
6 10 8 7 6 4 4 5 4 4 7 9 9 7 8 10 13 15 16 17 18 17 16 14 12 11 11 9 11 10 11 12 13 14 14 13 11 9 8 7 6 5 4 3 3 3 3 2 2
6 8 7 6 5 5 6 5 5 9 12 8 8 6 10 14 17 19 19 17 14 14 17 15 14 12 12 10 9 9 9 9 10 13 15 12 8 6 6 6 6 5 4 4 3 2 2 1 2
9 8 7 7 7 7 7 9 8 11 12 8 5 7 13 16 18 17 15 13 13 15 16 16 15 15 12 10 9 10 10 10 12 13 15 15 9 6 6 6 7 6 6 5 4 3 2 2 2
7 7 8 9 9 7 9 11 7 14 8 6 7 10 13 16 18 14 12 13 16 17 17 17 17 16 14 12 10 9 11 12 12 13 15 17 13 9 7 6 6 7 8 7 6 4 3 2 2
4 7 10 8 7 6 5 13 13 14 6 8 10 11 12 15 14 16 17 18 18 17 16 18 19 17 17 15 13 11 11 12 11 13 16 17 15 12 9 6 6 8 10 8 5 4 3 2 2
2 4 8 8 6 6 6 16 14 9 8 12 12 11 11 14 15 16 17 16 15 14 15 18 17 18 19 16 13 11 12 12 12 13 15 17 17 16 11 7 7 10 9 7 4 3 3 3 3
2 6 8 8 6 6 8 13 12 7 8 12 12 12 12 12 13 15 15 16 15 16 16 17 19 20 20 18 13 11 11 11 12 13 13 16 17 17 13 9 8 10 7 6 5 4 4 4 4
7 6 7 8 5 6 10 15 14 9 8 12 12 11 11 13 16 15 15 16 15 15 16 17 18 19 18 15 11 9 9 10 10 11 13 16 17 18 14 9 9 9 6 6 5 5 4 3 3
6 7 10 9 6 5 12 17 18 13 10 12 12 12 12 14 13 11 12 13 13 14 16 17 18 18 16 14 14 13 14 13 12 12 14 17 17 17 14 10 9 9 9 8 8 5 5 4 3
9 10 10 8 5 6 10 16 15 13 12 12 13 13 14 12 10 9 10 10 14 16 17 18 19 19 18 17 16 12 11 10 11 9 11 16 16 17 15 12 10 10 9 8 9 6 4 4 5
10 11 11 9 8 6 7 12 12 10 9 11 11 12 12 13 13 11 10 11 12 15 18 18 20 21 21 18 11 7 6 4 7 10 12 14 16 17 15 14 11 11 10 10 11 10 8 6 5
12 8 9 8 6 6 2 9 10 9 11 12 13 12 13 12 12 11 9 9 12 15 15 17 18 19 19 18 15 16 14 15 15 12 13 12 15 15 16 14 14 12 11 10 11 11 8 7 6
6 3 6 7 7 8 6 8 10 5 10 12 12 12 12 11 11 11 11 11 12 12 13 14 16 18 18 19 20 20 18 15 10 8 11 12 13 14 15 14 13 13 12 12 11 11 10 9 7
4 1 2 2 2 9 11 9 10 6 10 9 10 10 11 11 10 10 9 8 8 8 9 11 14 16 18 20 20 21 21 16 12 13 14 12 10 12 14 14 14 13 12 13 12 12 12 11 9
4 2 2 3 5 9 6 8 11 9 9 10 12 13 11 9 8 8 8 7 7 7 8 9 13 16 16 19 20 21 21 19 18 16 16 13 11 11 15 15 14 13 13 12 12 12 12 12 10
8 8 7 5 5 5 4 10 9 9 9 9 10 10 9 8 7 7 8 7 7 8 8 9 12 14 15 18 20 19 18 15 14 15 13 15 13 14 13 15 15 14 13 12 12 11 11 10 11
5 8 6 3 4 6 7 7 9 7 6 7 8 8 8 7 7 6 6 6 6 7 8 10 11 12 14 16 16 16 17 16 15 14 13 12 11 10 13 14 14 14 13 13 12 10 12 11 11
6 5 4 5 5 7 7 7 6 6 7 7 7 7 7 7 6 6 5 5 5 5 6 7 9 11 12 13 14 14 15 16 14 12 14 13 12 11 12 14 14 13 13 13 12 10 10 11 10
5 5 6 5 5 5 6 7 6 7 6 5 6 6 7 7 7 7 6 5 5 4 4 5 7 8 9 10 12 13 14 14 13 13 14 13 12 12 13 14 14 14 13 13 13 12 12 13 11
7 8 8 7 7 6 6 9 4 5 4 4 6 7 7 7 7 7 6 6 5 5 4 5 5 7 8 8 9 11 12 12 13 14 13 12 12 12 13 13 13 13 13 13 14 14 13 13 13
Wind_Direction
113 106 88 64 59 54 244 242 230 241 232 222 171 162 169 177 177 210 164 148 143 152 168 173 169 165 160 156 154 151 148 145 141 135 132 129 125 118 112 107 102 99 96 95 93 91 90 87 86
128 112 66 68 107 214 258 240 228 225 213 132 116 137 164 219 217 167 156 167 152 156 165 168 168 165 162 160 158 155 151 148 145 141 137 135 130 125 121 116 109 104 100 98 96 93 90 90 88
131 81 95 96 161 200 235 230 224 249 218 188 175 203 195 211 196 193 192 160 150 157 162 166 167 165 163 162 161 158 154 152 150 148 144 140 136 133 129 123 115 110 107 104 101 97 94 93 91
110 62 66 117 228 226 226 240 207 246 266 194 165 233 260 256 199 188 155 154 151 157 161 167 168 167 166 164 163 162 159 157 157 154 151 147 141 138 134 128 123 119 115 112 106 102 99 96 94
69 95 109 245 246 246 243 250 215 218 230 198 163 206 253 322 95 134 150 158 158 160 163 170 170 170 169 168 167 166 164 162 162 159 157 152 146 143 139 136 133 130 126 120 114 109 103 100 99
76 91 168 236 249 260 256 223 197 232 237 210 174 193 242 84 134 152 157 161 163 162 165 173 174 173 172 171 170 170 169 168 167 165 162 157 153 150 147 146 142 139 135 129 123 116 109 105 102
133 143 207 228 251 262 249 191 198 218 234 221 181 183 266 222 177 153 153 151 156 162 165 175 178 177 176 175 174 174 173 172 171 169 166 162 160 158 156 154 151 147 141 137 131 124 117 111 107
149 146 214 227 233 253 240 201 219 198 232 204 160 180 238 219 144 130 131 143 157 168 174 178 178 176 176 177 177 176 176 175 174 172 168 165 164 164 161 160 160 156 151 147 141 131 124 114 108
125 171 225 221 214 243 225 232 255 212 190 200 209 216 249 132 136 137 145 164 177 184 187 184 179 176 175 176 179 177 178 178 177 172 168 165 162 161 161 164 169 168 166 162 155 142 125 106 101
155 212 229 221 207 225 241 235 246 231 238 251 254 247 122 144 158 167 177 184 190 193 193 190 184 178 174 178 178 177 178 179 175 170 167 163 161 162 165 173 179 181 178 174 167 148 120 95 87
186 219 236 240 229 236 253 253 226 206 241 230 226 217 162 171 179 187 192 193 196 194 193 193 189 182 178 177 174 175 176 174 172 170 168 165 164 165 168 174 184 184 174 158 146 120 111 109 113
217 240 233 245 240 243 245 251 242 217 233 236 227 199 178 186 193 198 200 201 194 193 197 194 191 187 185 180 178 177 177 177 176 177 173 168 166 169 174 179 184 182 178 170 166 153 156 153 176
231 248 248 249 257 252 256 249 249 249 249 262 245 201 196 199 206 210 208 201 192 198 200 196 193 192 188 183 183 184 185 186 183 181 181 178 176 178 183 188 191 194 192 188 186 189 198 210 218
243 255 262 259 256 251 249 261 249 256 251 248 230 221 213 209 211 209 205 202 200 203 202 197 196 195 191 191 191 190 191 189 185 187 188 186 186 185 184 188 194 201 200 199 196 199 198 208 213
252 271 281 260 244 245 246 270 241 248 250 253 247 237 229 223 217 214 212 209 205 204 201 199 198 195 195 196 195 193 193 191 192 195 193 192 192 191 189 189 196 206 202 196 192 196 189 195 210
256 254 262 258 233 227 206 258 260 250 238 253 254 248 240 235 226 222 218 214 208 201 199 201 198 197 199 199 197 196 194 194 197 197 196 197 197 195 191 193 203 204 194 187 181 182 188 206 214
236 245 251 268 234 216 214 255 266 258 240 255 257 251 244 244 240 230 221 216 209 203 200 199 199 197 199 200 198 196 194 197 199 197 199 200 200 198 195 200 204 194 186 187 190 188 185 203 217
232 238 245 249 259 223 239 256 271 270 246 253 258 257 251 246 243 232 222 217 211 204 200 201 202 200 197 197 194 193 196 201 200 201 204 201 202 199 197 201 198 186 183 190 190 192 191 200 204
229 239 255 259 260 248 251 262 269 267 259 260 260 256 253 252 248 238 227 216 208 203 199 201 202 200 193 193 195 197 204 204 204 206 205 203 201 199 198 201 193 187 195 198 192 184 191 204 167
241 255 263 278 267 255 265 269 266 259 248 245 250 254 252 253 259 247 232 215 209 207 204 202 205 200 195 198 198 198 196 202 205 203 204 204 202 200 201 200 198 194 197 197 193 183 179 193 174
241 241 250 266 305 289 294 283 264 262 251 254 249 247 251 246 250 251 237 222 213 212 208 206 205 201 199 196 188 178 172 171 188 202 207 206 204 202 201 200 198 195 195 202 199 193 188 199 199
249 239 244 258 279 276 265 284 271 259 267 260 256 252 252 251 247 247 240 230 219 218 211 208 205 203 198 192 188 187 194 201 205 204 205 202 201 202 202 199 198 198 199 202 201 199 198 190 201
235 244 241 245 246 268 246 260 276 251 260 259 255 255 256 255 249 249 242 235 228 220 212 209 206 204 196 193 195 196 204 209 202 191 194 199 201 203 202 200 199 201 202 203 200 198 201 201 201
217 271 268 241 234 257 237 226 273 227 236 258 262 263 261 261 257 255 253 243 238 224 213 207 205 206 198 196 198 200 205 203 193 195 199 201 202 203 204 201 202 203 203 204 203 202 202 205 206
185 181 261 253 231 245 212 217 253 239 235 242 257 266 267 264 263 266 266 253 243 229 216 208 205 207 200 198 201 204 206 203 203 202 202 200 201 204 205 201 203 204 205 203 200 200 204 204 204
203 186 203 228 237 269 225 230 253 255 255 258 263 268 279 276 269 264 260 253 246 234 218 209 209 210 202 202 205 206 206 206 209 205 202 202 206 207 199 200 203 204 202 201 200 203 205 204 208
194 208 205 227 267 270 254 271 296 282 289 288 284 289 290 289 286 280 279 269 256 241 224 212 211 213 206 205 206 207 206 206 208 205 203 204 205 199 194 197 201 202 201 200 198 206 207 205 209
202 173 159 201 235 255 261 253 251 281 288 294 300 302 307 314 320 317 310 295 279 258 238 219 213 213 211 205 205 208 207 207 206 201 203 204 202 195 192 196 199 199 199 198 199 205 205 204 209
192 192 201 210 218 225 262 262 226 233 251 272 291 302 308 316 321 320 313 304 295 290 269 238 223 217 214 209 208 206 206 205 202 204 206 204 199 195 196 196 197 199 199 198 200 206 202 205 209
210 206 198 217 234 225 249 266 257 245 271 294 308 315 319 318 317 315 316 322 320 306 286 260 236 224 221 211 206 209 205 199 202 207 206 200 199 198 197 194 196 199 200 198 201 205 205 207 209
Height
1498 1499 1500 1502 1506 1515 1513 1504 1498 1495 1493 1490 1490 1491 1492 1494 1497 1499 1492 1491 1493 1495 1498 1501 1504 1507 1510 1512 1514 1516 1517 1519 1520 1521 1522 1523 1524 1524 1525 1526 1527 1527 1528 1528 1529 1529 1530 1530 1531
1497 1499 1501 1502 1511 1519 1512 1500 1496 1492 1489 1489 1489 1489 1489 1489 1489 1489 1489 1490 1493 1495 1498 1500 1503 1506 1509 1511 1513 1515 1517 1518 1519 1521 1522 1523 1523 1524 1525 1526 1527 1528 1528 1529 1529 1530 1530 1531 1531
1497 1498 1500 1503 1510 1512 1503 1493 1491 1488 1488 1488 1488 1488 1488 1487 1487 1488 1489 1490 1492 1495 1497 1500 1503 1506 1508 1511 1513 1515 1516 1517 1519 1520 1521 1522 1523 1524 1525 1526 1527 1528 1528 1529 1529 1530 1531 1531 1532
1496 1498 1500 1505 1504 1499 1494 1488 1487 1488 1488 1488 1488 1488 1487 1487 1487 1488 1488 1489 1491 1494 1497 1499 1502 1505 1508 1510 1512 1514 1515 1517 1518 1520 1521 1522 1523 1524 1525 1526 1527 1528 1528 1529 1530 1530 1531 1532 1532
1495 1496 1502 1504 1499 1492 1488 1486 1486 1487 1487 1486 1487 1486 1485 1486 1486 1486 1488 1489 1491 1493 1496 1499 1502 1504 1507 1509 1511 1513 1515 1516 1518 1519 1521 1522 1523 1524 1525 1526 1527 1528 1528 1529 1530 1531 1531 1532 1533
1494 1495 1505 1503 1495 1489 1485 1484 1485 1485 1485 1485 1486 1485 1484 1485 1485 1486 1487 1489 1491 1493 1495 1498 1501 1504 1506 1508 1510 1512 1514 1516 1517 1519 1520 1521 1523 1524 1525 1526 1526 1527 1528 1529 1530 1531 1532 1532 1533
1493 1497 1499 1496 1493 1488 1483 1483 1483 1483 1483 1483 1484 1484 1482 1483 1484 1486 1487 1489 1491 1493 1495 1497 1500 1503 1505 1507 1509 1511 1513 1515 1516 1518 1520 1521 1522 1523 1524 1525 1526 1527 1528 1529 1530 1531 1532 1532 1533
1489 1493 1494 1494 1491 1486 1481 1481 1480 1481 1480 1481 1482 1482 1480 1481 1482 1484 1486 1488 1490 1492 1494 1496 1499 1501 1504 1506 1508 1510 1512 1514 1515 1517 1519 1520 1521 1523 1524 1525 1526 1527 1528 1529 1530 1531 1532 1532 1533
1487 1494 1492 1488 1487 1483 1479 1479 1479 1479 1479 1478 1479 1479 1479 1480 1481 1482 1484 1486 1488 1490 1492 1495 1497 1499 1502 1505 1507 1509 1511 1513 1514 1516 1518 1519 1521 1522 1523 1525 1526 1527 1528 1529 1530 1530 1531 1532 1533
1484 1489 1482 1479 1479 1479 1478 1478 1477 1477 1477 1476 1476 1476 1477 1478 1478 1479 1480 1482 1484 1486 1489 1492 1495 1497 1500 1503 1505 1507 1509 1511 1513 1515 1516 1518 1520 1521 1523 1524 1525 1526 1527 1529 1529 1530 1531 1532 1533
1480 1480 1476 1476 1476 1476 1476 1475 1475 1475 1475 1473 1473 1473 1474 1475 1475 1476 1477 1478 1480 1483 1486 1489 1492 1495 1497 1500 1502 1505 1507 1509 1511 1513 1515 1516 1518 1520 1522 1523 1524 1526 1527 1528 1529 1530 1531 1531 1532
1477 1474 1473 1473 1474 1474 1473 1473 1473 1471 1469 1470 1470 1471 1471 1471 1471 1472 1473 1475 1478 1480 1482 1486 1489 1492 1495 1497 1500 1502 1504 1506 1508 1511 1513 1515 1516 1518 1520 1522 1523 1525 1526 1527 1528 1529 1530 1531 1532
1474 1471 1471 1471 1471 1471 1471 1470 1469 1466 1466 1467 1467 1467 1467 1467 1468 1469 1471 1473 1474 1476 1479 1482 1485 1488 1491 1494 1497 1499 1501 1504 1506 1508 1510 1512 1514 1516 1518 1520 1522 1523 1525 1526 1527 1528 1529 1530 1531
1470 1469 1469 1468 1468 1468 1468 1465 1466 1459 1462 1462 1462 1462 1462 1463 1464 1466 1467 1468 1470 1472 1475 1478 1481 1484 1488 1490 1493 1496 1499 1501 1504 1506 1508 1510 1512 1514 1516 1518 1520 1522 1523 1525 1526 1527 1528 1529 1529
1469 1469 1467 1464 1464 1464 1466 1463 1458 1455 1458 1458 1457 1457 1458 1458 1459 1460 1461 1463 1465 1468 1471 1473 1477 1480 1483 1486 1489 1492 1495 1498 1500 1503 1505 1507 1509 1512 1514 1516 1518 1520 1521 1523 1524 1525 1526 1527 1528
1468 1470 1470 1462 1461 1461 1467 1461 1450 1452 1453 1452 1451 1451 1452 1452 1453 1454 1456 1458 1461 1463 1466 1469 1472 1475 1479 1482 1485 1488 1491 1494 1497 1499 1502 1504 1506 1509 1511 1513 1515 1517 1519 1520 1521 1523 1523 1524 1525
1471 1473 1469 1463 1458 1459 1461 1456 1446 1447 1448 1446 1445 1445 1445 1446 1447 1448 1450 1452 1455 1457 1460 1463 1466 1469 1473 1477 1481 1484 1487 1490 1493 1495 1498 1500 1503 1505 1507 1509 1512 1514 1516 1517 1519 1520 1521 1522 1523
1471 1470 1467 1464 1457 1457 1458 1452 1445 1443 1443 1441 1440 1439 1439 1439 1439 1442 1444 1446 1449 1451 1454 1457 1460 1464 1468 1472 1476 1479 1482 1485 1488 1490 1493 1496 1498 1501 1503 1505 1508 1510 1512 1513 1515 1517 1518 1519 1520
1465 1466 1465 1460 1455 1457 1454 1449 1441 1438 1439 1436 1434 1433 1433 1432 1433 1436 1437 1440 1442 1444 1447 1450 1453 1457 1461 1465 1468 1471 1474 1478 1481 1484 1487 1491 1493 1496 1499 1501 1503 1505 1507 1509 1511 1513 1514 1515 1517
1464 1466 1464 1459 1454 1454 1452 1445 1437 1433 1431 1429 1428 1427 1426 1426 1427 1429 1430 1432 1434 1436 1439 1442 1445 1449 1453 1457 1460 1464 1468 1471 1475 1479 1482 1485 1488 1491 1493 1496 1498 1500 1502 1505 1507 1508 1510 1511 1513
1461 1463 1462 1461 1456 1452 1453 1443 1434 1426 1424 1422 1421 1420 1420 1420 1420 1422 1424 1425 1427 1429 1431 1434 1438 1441 1445 1450 1455 1459 1463 1466 1469 1471 1474 1478 1482 1485 1487 1490 1493 1495 1497 1499 1501 1503 1505 1506 1508
1458 1456 1457 1458 1461 1460 1457 1451 1432 1424 1420 1416 1414 1413 1413 1413 1414 1416 1417 1419 1420 1422 1425 1428 1430 1434 1438 1442 1446 1449 1452 1455 1458 1463 1467 1471 1475 1478 1481 1484 1487 1489 1492 1494 1496 1498 1500 1501 1502
1454 1453 1454 1455 1458 1460 1456 1456 1432 1424 1420 1412 1409 1407 1407 1408 1408 1409 1410 1412 1414 1416 1419 1421 1424 1427 1430 1434 1438 1442 1445 1449 1453 1457 1461 1464 1468 1471 1474 1477 1480 1483 1485 1487 1490 1492 1494 1495 1497
1451 1453 1454 1456 1459 1459 1449 1454 1433 1424 1414 1408 1404 1402 1402 1402 1403 1404 1404 1406 1407 1409 1411 1414 1416 1419 1423 1426 1430 1433 1437 1442 1445 1449 1452 1456 1460 1463 1467 1470 1473 1475 1478 1481 1483 1486 1488 1489 1491
1451 1456 1461 1459 1459 1452 1442 1445 1427 1412 1407 1404 1401 1398 1397 1398 1398 1399 1399 1400 1402 1403 1405 1407 1410 1412 1415 1419 1422 1426 1430 1434 1437 1441 1445 1448 1452 1455 1458 1462 1465 1468 1471 1474 1476 1479 1480 1482 1484
1447 1450 1458 1458 1454 1448 1441 1436 1417 1405 1401 1399 1397 1395 1394 1393 1394 1394 1395 1396 1397 1398 1400 1401 1403 1406 1409 1412 1415 1419 1423 1427 1430 1434 1437 1441 1444 1448 1451 1455 1458 1461 1464 1467 1469 1471 1473 1475 1477
1445 1447 1446 1453 1451 1451 1439 1429 1416 1402 1399 1397 1395 1392 1391 1390 1391 1391 1391 1391 1392 1393 1394 1395 1397 1399 1402 1405 1408 1412 1415 1419 1422 1426 1430 1433 1437 1441 1445 1448 1450 1453 1456 1459 1462 1464 1466 1468 1469
1440 1442 1448 1450 1449 1445 1435 1430 1419 1405 1399 1396 1393 1391 1389 1389 1388 1388 1388 1388 1388 1388 1389 1390 1392 1393 1396 1398 1401 1404 1408 1412 1416 1419 1422 1426 1430 1434 1437 1440 1443 1446 1449 1452 1454 1456 1459 1461 1462
1440 1442 1442 1443 1443 1442 1436 1422 1404 1400 1396 1394 1393 1390 1389 1389 1387 1387 1386 1386 1385 1384 1384 1385 1386 1388 1390 1392 1395 1398 1401 1405 1409 1412 1415 1419 1422 1426 1429 1433 1436 1439 1441 1444 1446 1449 1451 1453 1455
1434 1435 1438 1442 1439 1438 1435 1417 1397 1396 1394 1393 1392 1391 1389 1388 1387 1386 1384 1383 1382 1381 1381 1381 1382 1383 1385 1387 1389 1392 1395 1398 1402 1405 1408 1412 1415 1419 1422 1425 1428 1431 1434 1436 1439 1441 1443 1445 1447